www.pogodaiklimat.ru

Погода и климат >> Архив погоды >> Франция >> Довиль


ПОГОДА в Довиле

  • Прогноз погоды в Довиле
  • Монитор погоды в Довиле

АРХИВ ПОГОДЫ в Довиле

Время (UTC), дата Ветер
(напр.,м/с)
 
Видим.   Явления Облачность Т
(С)
Тd
(С)
f
(%)
Тe
(С)
Тes
(С)
Комфортность P
(гПа)
Po
(гПа)
Тmin
(С)
Tmax
(С)
R
(мм)
R24
(мм)
S
(см)
01 9.09 Ю 1 60 км 10/1 930 м
[]
+8.3 +7.4 94 +8 +8 1020.2 1002.8
02 9.09 ЮЗ 1 60 км 10/10
[]
+8.0 +6.9 93 +7 +7 1020.1 1002.6
03 9.09 ЮЗ 1
{3}
60 км 10/0
[]
+7.9 +7.1 95 +7 +7 1019.3 1001.8 0
04 9.09 ЮЗ 1 60 км 10/10
[]
+8.4 +7.2 92 +8 +8 1018.3 1000.9
05 9.09 Ю 2-2
{2}
50 км 10/10
[]
+8.2 +7.3 94 +7 +7 1017.5 1000.1
06 9.09 Ю 1
{4}
55 км 9/0
[]
+8.3 +7.2 93 +7 +7 1017.1 999.7 +6.8 +12.8 0
07 9.09 Ю 2-2
{2}
60 км н/о +9.5 +7.6 88 +8 +8 1016.7 999.4
08 9.09 Ю 2 55 км 9/9
[]
+10.7 +7.2 79 +9 +10 1016.3 999.1
09 9.09 Ю 2-3
{3}
60 км 10/0
[]
+11.7 +7.6 76 +11 +11 1015.9 998.7 0
10 9.09 Ю 2 55 км 10/10 2000 м
[]
+13.2 +8.7 74 +13 +13 1015.5 998.4
11 9.09 ЮВ 2-3
{3}
55 км 10/10
[]
+14.1 +9.3 73 +14 +14 1014.6 997.6
12 9.09 Ю 2
{7}
55 км 10/10 1500 м
[]
+15.0 +8.5 65 +15 +15 1014.0 997.1 0
13 9.09 Ю 3 55 км 10/10 1260 м
[]
+16.8 +8.2 57 +17 +17 1013.0 996.2
14 9.09 ЮЗ 3 55 км 10/3 1320 м
[]
+17.5 +8.6 56 +18 +20 1012.4 995.6 0.0
15 9.09 ЮЗ 3
{10}
45 км 10/10 1000 м
[]
+17.8 +7.5 51 +18 +20 1011.8 995.1 0.0 0
16 9.09 З 2 55 км 10/3 1350 м
[]
+16.6 +8.3 58 +17 +18 1011.8 995.0
17 9.09 СВ 1-1
{4}
6000 м слаб. дождь 10/10 1500 м
[]
+13.5 +11.9 90 +14 +14 1012.1 995.1 0.8
18 9.09 штиль 0
{4}
9000 м 10/10 1000 м
[]
+12.9 +11.6 92 +12 +12 1012.2 995.2 +8.2 +18.3 0.8 0
19 9.09 Ю 2 50 км 10/10 1500 м
[]
+12.6 +10.5 87 +12 +12 1012.5 995.5 0.0
20 9.09 Ю 2 55 км 10/1 960 м
[]
+12.3 +9.8 85 +12 +12 1013.2 996.1
21 9.09 Ю 2-2
{3}
55 км 10/0 2000 м
[]
+12.1 +9.7 85 +11 +11 1013.4 996.3 0.0 0
22 9.09 Ю 1 55 км 10/10 2000 м
[]
+11.5 +9.6 88 +11 +11 1013.6 996.5
23 9.09 СВ 1-1
{2}
60 км 10/10 2000 м
[]
+11.0 +9.6 91 +12 +12 1013.9 996.7
00 10.09 В 1-2
{2}
40 км н/о +10.3 +9.1 92 +10 +10 1014.3 997.1 0
01 10.09 З 1-1
{1}
1000 м дымка н/о +8.2 +7.1 93 +8 +8 1015.0 997.6
02 10.09 СВ 1-1
{1}
200 м туман н/о +7.4 +6.8 96 +7 +7 1015.3 997.9
03 10.09 штиль 0-1
{2}
4100 м дымка н/о +7.3 +6.9 97 +6 +6 1015.9 998.5 0
04 10.09 СВ 1-1
{1}
600 м туман н/о +7.2 +6.9 98 +7 +7 1016.4 998.9
05 10.09 ЮЗ 1-1
{1}
2500 м дымка н/о +6.6 +6.3 98 +6 +6 1016.6 999.1
06 10.09 З 1
{2}
1800 м дымка н/о +6.6 +6.3 98 +6 +6 1017.4 999.9 +5.8 +12.8 0
07 10.09 штиль 0-1
{1}
55 км н/о +10.3 +10.1 99 +9 +9 1017.9 1000.6
08 10.09 С 1-2
{2}
55 км н/о +14.8 +9.2 69 +15 +15 1018.6 1001.6
09 10.09 СЗ 2-3
{3}
55 км н/о +16.1 +10.2 68 +16 +16 1019.4 1002.4 0
10 10.09 С 2-3
{3}
40 км н/о +17.2 +11.0 67 +18 +18 1019.7 1002.8
11 10.09 СЗ 2-4
{4}
55 км н/о +17.8 +12.0 69 +18 +18 1020.4 1003.5
12 10.09 СЗ 2
{8}
45 км 10/10 600 м
[]
+17.0 +11.9 72 +18 +23 1020.8 1003.9 0
13 10.09 СЗ 2-3
{4}
50 км 10/10 2000 м
[]
+17.6 +12.7 73 +18 +18 1020.8 1003.9
14 10.09 СЗ 2-4
{4}
40 км н/о +18.3 +10.6 61 +19 +19 1020.6 1003.8
15 10.09 СЗ 2-4
{4}
60 км н/о +18.4 +11.9 66 +20 +20 1020.8 1004.0 0
16 10.09 СЗ 3-4
{5}
55 км н/о +17.1 +11.8 71 +17 +17 1021.3 1004.4
17 10.09 СЗ 2-4
{5}
50 км н/о +16.2 +11.8 75 +16 +16 1021.7 1004.7
18 10.09 СЗ 1
{6}
60 км н/о +14.6 +10.8 78 +16 +16 1021.8 1004.7 +6.7 +18.8 0
19 10.09 СЗ 1-2
{2}
55 км н/о +13.4 +11.1 86 +14 +14 1022.5 1005.3
20 10.09 З 1-1
{2}
19 км н/о +11.5 +9.7 89 +12 +12 1023.0 1005.7
21 10.09 З 1
{4}
35 км 8/8 300 м
[]
+12.2 +11.3 94 +13 +13 1023.7 1006.4 0
22 10.09 ЮЗ 1-1
{1}
19 км 8/8 480 м
[]
+12.4 +11.6 95 +13 +13 1023.9 1006.7
23 10.09 ЮЗ 1 5000 м н/о +10.9 +10.1 95 +11 +11 1023.8 1006.5
00 11.09 ЮЗ 1
{4}
17 км 10/10 600 м
[]
+11.3 +10.8 97 +11 +11 1023.8 1006.5 0.2 0
01 11.09 ЮЗ 2-3
{3}
6000 м 10/10
[]
+11.9 +11.4 97 +11 +11 1023.9 1006.6
02 11.09 ЮЗ 2 10 км 10/10
[]
+12.0 +11.5 97 +11 +11 1024.1 1006.8
03 11.09 ЮЗ 2
{5}
10 км 10/0
[]
+12.0 +11.4 96 +11 +11 1023.3 1006.0 0
04 11.09 ЮЗ 2-2
{2}
18 км 10/10
[]
+12.0 +11.2 95 +11 +11 1023.4 1006.1
05 11.09 ЮЗ 2 40 км 10/10 2000 м
[]
+12.2 +11.1 93 +11 +11 1023.7 1006.4
06 11.09 Ю 2
{5}
45 км 8/0
[]
+11.6 +10.7 94 +11 +11 1024.5 1007.2 +10.6 +14.6 0
07 11.09 ЮЗ 2 55 км н/о +12.6 +11.0 90 +12 +12 1024.3 1007.1
08 11.09 ЮЗ 2 50 км н/о +13.9 +11.4 85 +13 +13 1024.9 1007.7
09 11.09 ЮЗ 3
{10}
40 км 10/10 1000 м
[]
+15.5 +11.3 76 +15 +16 1025.3 1008.2 0
10 11.09 ЮЗ 3 50 км 10/8 870 м
[]
+16.1 +11.5 74 +16 +16 1025.7 1008.6
11 11.09 ЮЗ 3 13 км 10/10 450 м
[]
+15.8 +12.4 80 +15 +15 1025.5 1008.4
12 11.09 ЮЗ 3
{10}
50 км 10/10 600 м
[]
+18.4 +12.2 67 +19 +19 1025.4 1008.5 0
13 11.09 ЮЗ 3 45 км 10/10 700 м
[]
+19.3 +13.7 70 +21 +21 комфорт 1025.2 1008.4
14 11.09 ЮЗ 3 35 км 10/9 480 м
[]
+19.7 +14.3 71 +22 +22 комфорт 1025.1 1008.3
15 11.09 З 4
{11}
50 км 10/10 600 м
[]
+18.7 +14.6 77 +20 +20 1025.8 1008.9 0
16 11.09 З 3 18 км 10/10 500 м
[]
+18.1 +15.0 82 +18 +18 1025.9 1009.0
17 11.09 ЮЗ 3 60 км 10/10 500 м
[]
+18.2 +14.7 80 +19 +19 1026.0 1009.1
18 11.09 ЮЗ 3
{10}
40 км 10/10 300 м
[]
+17.9 +15.0 83 +18 +18 1026.2 1009.3 +11.6 +20.0 0
19 11.09 ЮЗ 3-4
{5}
19 км 10/10 400 м
[]
+17.5 +15.3 87 +18 +18 1026.6 1009.6 0.0
20 11.09 ЮЗ 3-5
{5}
3800 м дымка 10/10 400 м
[]
+17.4 +15.6 89 +18 +18 1027.1 1010.1
21 11.09 З 3-4
{5}
45 км 10/10 100 м
[]
+17.0 +16.2 95 +17 +17 1027.2 1010.2 0.0 0
22 11.09 З 3-5
{5}
12 км 10/10 180 м
[]
+17.0 +16.2 95 +17 +17 1027.3 1010.3 0.0
23 11.09 З 4-5
{5}
4800 м дымка 10/10 150 м
[]
+16.8 +16.2 96 +16 +16 1027.7 1010.7 0.0
00 12.09 З 3-5
{6}
16 км слаб. морось 10/10 200 м
[]
+16.8 +16.0 95 +17 +17 1028.1 1011.1 0.0 0
01 12.09 З 3-5
{5}
5000 м 10/10 180 м
[]
+16.7 +15.9 95 +17 +17 1028.3 1011.3 0.2
02 12.09 ЮЗ 3-5
{5}
60 км 10/10 180 м
[]
+16.6 +15.8 95 +16 +16 1028.3 1011.3
03 12.09 ЮЗ 3-4
{4}
60 км 10/10 100 м
[]
+16.7 +15.9 95 +17 +17 1028.3 1011.3 0.2 0
04 12.09 ЮЗ 2-3
{4}
40 км 10/10 150 м
[]
+16.6 +15.8 95 +17 +17 1028.3 1011.3
05 12.09 З 3-4
{4}
50 км 10/10 150 м
[]
+16.7 +16.1 96 +17 +17 1028.7 1011.7
06 12.09 З 2
{7}
11 км 10/10 100 м
[]
+16.8 +16.3 97 +17 +17 1029.5 1012.5 +16.5 +17.8 0
07 12.09 З 2-4
{4}
2300 м морось 10/10 90 м
[]
+16.8 +16.5 98 +17 +17 1030.3 1013.2 0.0
08 12.09 ЮЗ 2-4
{4}
4100 м дымка 10/10 60 м
[]
+17.0 +16.7 98 +17 +17 1031.1 1014.0 0.2
09 12.09 З 2-4
{5}
18 км 10/10 100 м
[]
+17.5 +17.2 98 +18 +18 1031.3 1014.3 0.2 0
10 12.09 З 2 40 км 10/10 240 м
[]
+18.6 +17.6 94 +20 +20 1031.6 1014.6
11 12.09 З 2 55 км 10/10 270 м
[]
+18.9 +16.9 88 +21 +21 комфорт 1031.8 1014.8
12 12.09 З 2
{6}
4800 м дымка 10/10 200 м
[]
+18.3 +16.8 91 +19 +19 1031.9 1014.9 0.0 0
13 12.09 З 2-3
{3}
7000 м 10/10 150 м
[]
+17.6 +16.8 95 +18 +18 1032.1 1015.1 0.0
14 12.09 З 2 3300 м дождь 10/10 150 м
[]
+17.9 +17.3 96 +18 +18 1032.2 1015.2 0.2
15 12.09 З 2
{8}
19 км 10/10 300 м
[]
+18.4 +17.1 92 +20 +20 1031.9 1014.9 0.2 0
16 12.09 З 2 60 км 10/10 750 м
[]
+19.2 +16.4 84 +21 +21 комфорт 1031.7 1014.8
17 12.09 З 2-4
{4}
55 км 10/10 1050 м
[]
+19.4 +15.7 79 +22 +22 комфорт 1031.9 1015.0
18 12.09 З 2
{5}
60 км 10/10 1000 м
[]
+17.9 +15.7 87 +19 +19 1032.1 1015.1 +16.8 +19.5 0
19 12.09 З 2-3
{3}
60 км н/о +16.8 +15.3 91 +17 +17 1032.4 1015.3
20 12.09 З 1-2
{2}
60 км н/о +16.4 +15.1 92 +17 +17 1032.7 1015.6
21 12.09 ЮЗ 1-2
{2}
60 км н/о +15.2 +14.1 93 +16 +16 1032.9 1015.7 0
22 12.09 ЮЗ 1-2
{2}
60 км н/о +14.7 +14.2 97 +15 +15 1033.0 1015.8
23 12.09 З 1-2
{2}
60 км н/о +15.0 +14.7 98 +15 +15 1032.9 1015.7
00 13.09 З 1-2
{3}
60 км н/о +14.6 +14.1 97 +15 +15 1032.7 1015.5 0
01 13.09 З 1-2
{2}
50 км 9/9 300 м
[]
+14.6 +14.3 98 +16 +16 1032.5 1015.3
02 13.09 З 2-3
{3}
45 км 10/10 210 м
[]
+15.6 +15.3 98 +16 +16 1032.4 1015.2
03 13.09 З 2-3
{3}
45 км 10/10 300 м
[]
+15.7 +15.2 97 +16 +16 1032.5 1015.3 0
04 13.09 З 2 55 км 10/10 300 м
[]
+15.9 +14.8 93 +16 +16 1032.3 1015.1
05 13.09 ЮЗ 1 19 км 10/10 240 м
[]
+15.6 +14.8 95 +16 +16 1032.8 1015.6
06 13.09 ЮЗ 1
{3}
4500 м дымка 10/10 100 м
[]
+15.2 +14.6 96 +16 +16 1033.3 1016.1 +14.1 +17.9 0
07 13.09 Ю 1-2
{2}
1900 м дождь 10/10 150 м
[]
+15.2 +14.9 98 +16 +16 1033.5 1016.3 0.2
08 13.09 ЮЗ 1-2
{2}
3000 м дымка 10/10 90 м
[]
+15.7 +15.4 98 +16 +16 1033.9 1016.7 0.2
09 13.09 Ю 1-2
{2}
10 км 10/10 50 м
[]
+16.1 +15.8 98 +17 +17 1034.3 1017.1 0.4 0
10 13.09 Ю 1-2
{2}
10 км 10/10 90 м
[]
+16.6 +16.1 97 +17 +17 1034.2 1017.1
11 13.09 ЮЗ 1-1
{2}
4200 м дымка 10/10 210 м
[]
+17.3 +16.5 95 +19 +19 1034.1 1017.0
12 13.09 С 1
{3}
3100 м слаб. дождь 10/10 100 м
[]
+18.2 +17.0 93 +20 +20 1033.9 1016.9 0.0 0
13 13.09 С 2 19 км 10/10 150 м
[]
+17.9 +16.6 92 +19 +19 1033.9 1016.8 0.0
14 13.09 С 2 16 км 10/10 180 м
[]
+18.4 +16.7 90 +20 +20 1033.7 1016.7
15 13.09 С 2
{5}
55 км 10/10 200 м
[]
+18.7 +16.5 87 +20 +20 1033.5 1016.5 0.0 0
16 13.09 С 1 60 км 10/10 180 м
[]
+18.7 +16.8 89 +21 +21 комфорт 1033.1 1016.1
17 13.09 С 1-2
{2}
55 км н/о +18.8 +17.1 90 +21 +21 комфорт 1033.0 1016.0
18 13.09 С 2
{4}
40 км 9/9 300 м
[]
+18.1 +16.6 91 +19 +19 1033.1 1016.1 +15.1 +19.0 0
19 13.09 С 2-3
{3}
40 км н/о +17.0 +15.3 90 +18 +18 1033.3 1016.2
20 13.09 СВ 1-3
{3}
30 км н/о +16.0 +14.9 93 +17 +17 1033.7 1016.5
21 13.09 СВ 1-2
{3}
19 км н/о +15.6 +14.8 95 +16 +16 1033.8 1016.6 0
22 13.09 СВ 1-2
{3}
18 км н/о +15.5 +14.7 95 +16 +16 1033.9 1016.7
23 13.09 СВ 1-2
{3}
18 км 9/9 1350 м
[]
+15.5 +14.5 94 +16 +16 1033.7 1016.5
00 14.09 СВ 2-3
{3}
35 км 10/10 1000 м
[]
+15.5 +14.2 92 +16 +16 1033.6 1016.4 0
01 14.09 В 2-3
{4}
45 км н/о +15.0 +13.0 88 +15 +15 1033.3 1016.1
02 14.09 СВ 1-2
{3}
35 км н/о +13.8 +12.5 92 +14 +14 1032.6 1015.3
03 14.09 СВ 1-2
{3}
35 км н/о +13.4 +12.1 92 +13 +13 1032.5 1015.2 0.2 0
04 14.09 СВ 1-3
{3}
25 км н/о +13.0 +12.2 95 +13 +13 1033.0 1015.6
05 14.09 СВ 2-3
{3}
19 км н/о +12.9 +11.8 93 +12 +12 1032.9 1015.5
06 14.09 СВ 1-2
{3}
14 км н/о +12.3 +11.4 94 +12 +12 1032.9 1015.5 +12.3 +18.1 0
07 14.09 СВ 2-3
{3}
17 км н/о +13.5 +11.9 90 +13 +13 1032.8 1015.5
08 14.09 В 2-3
{4}
19 км н/о +15.5 +13.0 85 +15 +15 1032.4 1015.2
09 14.09 В 2-3
{3}
35 км н/о +18.2 +14.1 77 +19 +19 1032.1 1015.1 0
10 14.09 В 2-3
{4}
19 км н/о +20.1 +14.2 69 +23 +23 комфорт 1031.8 1014.9
11 14.09 В 2-4
{4}
19 км н/о +22.0 +13.6 59 +25 +25 комфорт 1031.0 1014.2
12 14.09 В 2-4
{4}
19 км н/о +22.7 +13.2 55 +26 +26 жарко 1030.2 1013.5 0
13 14.09 В 1-4
{4}
50 км н/о +24.0 +13.5 52 +26 +26 жарко 1029.6 1012.9
14 14.09 СВ 2-3
{4}
45 км н/о +24.0 +13.2 51 +26 +26 жарко 1029.0 1012.4
15 14.09 С 2-4
{4}
50 км н/о +23.5 +14.2 56 +26 +26 жарко 1028.3 1011.6 0
16 14.09 С 2-4
{4}
30 км н/о +23.1 +14.9 60 +27 +27 душно 1027.8 1011.1
17 14.09 С 2-3
{4}
45 км н/о +21.6 +14.7 65 +25 +25 комфорт 1027.9 1011.1
18 14.09 С 2
{6}
55 км н/о +19.6 +14.4 72 +22 +22 комфорт 1028.1 1011.2 +12.3 +24.3 0
19 14.09 СВ 1-2
{3}
45 км н/о +17.5 +13.8 79 +19 +19 1028.3 1011.3
20 14.09 СВ 1-2
{3}
35 км н/о +16.2 +13.5 84 +17 +17 1028.3 1011.2
21 14.09 СВ 1-2
{2}
19 км н/о +14.7 +13.2 91 +15 +15 1028.3 1011.1 0
22 14.09 СВ 1-1
{2}
11 км н/о +13.7 +12.8 94 +15 +15 1028.0 1010.8
23 14.09 СВ 1-1
{1}
9000 м н/о +13.1 +12.5 96 +14 +14 1027.7 1010.4
00 15.09 ЮВ 1-1
{1}
10 км н/о +12.6 +12.0 96 +13 +13 1027.4 1010.1 0
01 15.09 штиль 0-1
{1}
17 км н/о +12.1 +11.5 96 +11 +11 1026.9 1009.6
02 15.09 З 1-1
{1}
13 км н/о +10.8 +10.2 96 +11 +11 1026.8 1009.4 0.0
03 15.09 ЮЗ 1-1
{1}
14 км н/о +11.0 +10.7 98 +11 +11 1026.8 1009.4 0.0 0
04 15.09 С 1-1
{1}
300 м туман н/о +10.3 +10.0 98 +11 +11 1026.5 1009.1
05 15.09 Ю 1-1
{1}
300 м туман н/о +11.2 +11.0 99 +12 +12 1026.2 1008.8 0.2
06 15.09 штиль 0
{2}
200 м туман н/о +11.1 +10.9 99 +10 +10 1026.3 1008.9 +9.6 +19.6 0.2 0
07 15.09 З 1-1
{1}
14 км н/о +13.7 +13.5 99 +15 +15 1026.4 1009.2
08 15.09 СЗ 1-2
{2}
17 км н/о +16.2 +14.9 92 +17 +17 1026.5 1009.5
09 15.09 С 1-2
{2}
16 км н/о +18.6 +14.9 79 +20 +20 1026.4 1009.5 0
10 15.09 С 1-2
{3}
18 км н/о +19.6 +14.8 74 +23 +23 комфорт 1026.4 1009.6
11 15.09 С 1-3
{3}
16 км н/о +20.4 +14.3 68 +24 +24 комфорт 1026.2 1009.4
12 15.09 СЗ 2-3
{3}
19 км н/о +20.8 +15.1 70 +25 +25 комфорт 1025.9 1009.1 0
13 15.09 С 1-3
{3}
19 км н/о +21.9 +15.7 68 +26 +26 душно 1025.1 1008.4
14 15.09 С 2-4
{4}
21 км н/о +22.2 +14.8 63 +26 +26 душно 1024.6 1007.9
15 15.09 СЗ 2-3
{3}
45 км н/о +20.9 +12.8 60 +24 +24 комфорт 1024.0 1007.3 0
17 15.09 СЗ 1-3
{3}
50 км н/о +18.7 +13.1 70 +21 +21 комфорт 1023.9 1007.0
18 15.09 СЗ 1
{5}
55 км н/о +16.6 +13.1 80 +17 +17 1024.0 1007.0 +10.5 +22.7 0
19 15.09 СЗ 1-2
{2}
35 км н/о +13.6 +11.6 88 +14 +14 1024.3 1007.1
20 15.09 СЗ 2-2
{2}
55 км н/о +13.2 +12.4 95 +13 +13 1024.4 1007.2
21 15.09 ЮЗ 1-1
{2}
15 км н/о +11.3 +10.0 92 +12 +12 1024.6 1007.3 0
22 15.09 ЮЗ 1-1
{1}
500 м туман н/о +10.4 +9.8 96 +11 +11 1024.5 1007.1
23 15.09 З 1-1
{1}
300 м туман н/о +10.4 +10.1 98 +11 +11 1024.3 1006.9

 

Местоположение метеостанции Довиль (Франция): широта 49.37 долгота 0.17 высота над уровнем моря 147 м.

В архиве по умолчанию представлена погода в Довиле за последнюю неделю. Архивные данные за месяц целиком и за предыдущие месяцы, начиная с января 2011 года, Вы можете получить, выбрав интересующий диапазон дат из раскрывающегося списка и нажав кнопку "Ввод!".


*Определитесь, кто Вы:
робот инопланетянин человек

Внимание! Время в таблицах - всемирное. Для получения местного времени необходимо прибавить поправку, которая равна 1 ч.

Смотрите также архив погоды в соседних городах и на ближайших метеорологических станциях:

Погода в Гавре (Франция) (16 км)
Погода в Гавр аэропорту (Франция) (19 км)
Погода в Кане (Франция) (50 км)
Погода в Порт-ан-Бессене (Франция) (68 км)
Погода в Руанском (Франция) (73 км)
Погода в Эврё (Франция) (86 км)
Погода в Дьеппе (Франция) (91 км)
Погода в Тусю-ле-Нобле (Франция) (95 км)
Погода в Алансоне (Франция) (105 км)
Погода в Барфлере (Франция) (110 км)

Пояснения к столбцам:

Ветер - указаны скорость ветра в м/с - средняя за 10 мин, порывы в срок и между сроками (в фигурных скобках) и направление, откуда дует ветер: С - северный, СВ - северо-восточный, В - восточный, ЮВ - юго-восточный, Ю - южный, ЮЗ - юго-западный, З - западный, СЗ - северо-западный.
Видимость - горизонтальная дальность видимости в метрах или километрах. При видимости от 1 до 10 км при отсутствии осадков обычно наблюдается дымка, при ухудшении видимости до 1 км и менее - туман. В сухую погоду видимость может ухудшаться дымом, пылью или мглою.
Явления - указаны атмосферные явления, наблюдавшиеся в срок или в последний час перед сроком; фигурными скобками обозначены явления, наблюдавшиеся между сроками (за 1-3 часа до срока); квадратными скобками обозначены град или гололедные отложения с указанием их диаметра в мм.
Облачность - указаны через наклонную черту общая и нижняя облачность в баллах и высота нижней границы облаков в метрах; квадратными скобками обозначены формы облаков: Ci - перистые, Cs - перисто-слоистые, Cc - перисто-кучевые, Ac - высококучевые, As - высокослоистые, Sc - слоисто-кучевые, Ns - слоисто-дождевые, Cu - кучевые, Cb - кучево-дождевые. Подробнее классификацию облаков см. в Атласе облаков (PDF).
T - Температура воздуха - температура, измеренная на высоте 2 м над землей.
Td - Температура точки росы - температура, при понижении до которой содержащийся в воздухе водяной пар достигнет насыщения.
f - Относительная влажность воздуха - влажноcть воздуха, измеренная на высоте 2 м над землей.
Te - Эффективная температура - температура, которую ощущает одетый по сезону человек в тени. Характеристика душности погоды. При расчете учитывается влияние влажности воздуха и скорости ветра на теплоощущения человека.
Tes - Эффективная температура на солнце - температура, которую ощущает человек, с поправкой на солнечный нагрев. Характеристика знойности погоды. Зависит от высоты солнца над горизонтом, облачности и скорости ветра. Ночью, в пасмурную погоду, а также при ветре 12 м/с и более поправка равна нулю.
P - Атмосферное давление - приведенное к уровню моря атмосферное давление.
Po - Атмосферное давление - измеренное на уровне метеостанции атмосферное давление.
Tmin - Минимальная температура - минимум температуры воздуха на высоте 2 м над землей.
Tmax - Максимальная температура - максимум температуры воздуха на высоте 2 м над землей.
R - Количество осадков - Количество выпавших осадков за период времени, мм. При наведении курсора мыши на число - период времени, за который выпало указанное количество осадков.
R24 - Количество осадков - Количество выпавших осадков за 24 часа, мм.
S - Снежный покров - Высота снежного покрова, см. При наведении курсора мыши на число - состояние снежного покрова и степень покрытия местности в баллах.